Regional Weather Roundup
Issued by NWS Jackson, KY

Home | Current Version | Previous Version | Graphics & Text | Print | Product List | Glossary On
Versions: 1 2 3 4 5 6 7 8 9 10 11 12 13 14 15 16 17 18 19 20 21 22 23 24 25 26 27 28 29 30 31 32 33 34 35 36 37 38 39 40 41 42 43 44 45 46 47 48 49 50
290
ASUS43 KJKL 060510
RWRJKL

EAST KENTUCKY HOURLY WEATHER ROUNDUP
NATIONAL WEATHER SERVICE JACKSON KY
1200 AM EST TUE DEC 06 2016

NOTE: "FAIR" INDICATES FEW OR NO CLOUDS BELOW 12,000 FEET WITH
NO SIGNIFICANT WEATHER AND/OR OBSTRUCTIONS TO VISIBILITY.

* THESE REPORTS ARE NOT UNDER NWS QUALITY CONTROL AND MAY NOT
  REPORT WEATHER SUCH AS PRECIPITATION AND FOG.

KYZ079-080-083-085-087-088-110-112-115-119-120-060600
...EASTERN KENTUCKY...

CITY           SKY/WX    TMP DP  RH WIND       PRES   REMARKS
JACKSON        CLOUDY    44  35  70 VRB6      29.86F
LONDON         CLOUDY    47  38  71 E8        29.81F
SOMERSET*      CLOUDY    45  39  81 E5        29.83F
MONTICELLO*    CLOUDY    48  43  82 N12       29.82F
WILLIAMSBURG*  CLOUDY    46  45  93 E5        29.81F
MIDDLESBORO*   CLOUDY    49  46  87 W6        29.83F
HARLAN APT*    CLOUDY    52  43  71 CALM      29.84F
PIKE CO APT*   CLOUDY    45  37  74 E3        29.89F
MOREHEAD APT*  CLOUDY    43  34  70 E8        29.90F
ASHLAND*       CLOUDY    43  34  70 E3        29.92S
$$

KYZ035-036-041-042-044-050-067-078-099-060600
...CENTRAL KENTUCKY...

CITY           SKY/WX    TMP DP  RH WIND       PRES   REMARKS
MT STERLING*   CLOUDY    43  36  75 E9        29.87F
FLEMING/MASON* CLOUDY    40  33  75 E9        29.91F WCI  35
DANVILLE*      CLOUDY    43  37  81 E8        29.83F
LEXINGTON      CLOUDY    44  35  70 E13       29.84F
FRANKFORT      CLOUDY    43  35  73 E13G21    29.83F
LOUISVILLE     CLOUDY    45  35  68 E9        29.82F
LEBANON*         N/A     45  37  76 NE7       29.81F
GLASGOW*       CLOUDY    46  41  84 NE3       29.79S
BOWLING GREEN  CLOUDY    46  41  82 E8        29.78F
$$

KYZ091>093-OHZ055-061-077-WVZ005-015-034-035-042-060600
...SOUTHERN OHIO/WEST VIRGINIA...

CITY           SKY/WX    TMP DP  RH WIND       PRES   REMARKS
COVINGTON      CLOUDY    40  33  76 NE12      29.89F WCI  33
COLUMBUS       PTCLDY    34  30  85 E9        29.99F WCI  27
DAYTON         CLOUDY    33  29  85 E10       29.96F WCI  25
WILMINGTON     CLOUDY    35  31  85 E8        29.94F WCI  29
HUNTINGTON     CLOUDY    43  33  68 NE6       29.93F
CHARLESTON     CLOUDY    44  35  70 NE7       29.93F
PINEVILLE*     CLOUDY    50  35  57 MISG      29.98R
BECKLEY        CLOUDY    45  33  63 SE17G28   29.94F
BLUEFIELD      CLOUDY    44  36  73 S14G26    29.97F
LOGAN CO APT*  CLOUDY    45  36  70 CALM      29.90F
$$

VAZ002-007-008-TNZ017-027-036-066-071-060600
...SOUTHWEST VIRGINIA/EAST TENNESSEE...

CITY           SKY/WX    TMP DP  RH WIND       PRES   REMARKS
WISE*          CLOUDY    48  41  76 SE6       29.89F
JONESVILLE*    CLOUDY    50  45  81 CALM      29.87F
ABINGDON*      DRIZZLE   49  46  89 E14       29.92S
BRISTOL        CLOUDY    47  45  93 E5        29.89S
MORRISTOWN*    PTCLDY    48  48 100 E8G14     29.81F
SEVIERVILLE*   CLOUDY    46  46 100 CALM      29.81F
KNOXVILLE      LGT RAIN  49  46  90 N6        29.81F
OAK RIDGE      CLOUDY    51  44  77 E5        29.82F
CROSSVILLE     CLOUDY    49  47  93 SE3       29.79S
NASHVILLE      CLOUDY    48  46  93 VRB3      29.75F
$$

...KEY TO REMARKS...
VSB - VISIBILITY IN MILES
WCI - WIND CHILL INDEX
HX  - HEAT INDEX

$$




USA.gov is the U.S. government's official web portal to all federal, state and local government web resources and services.